South Lake Tahoe, CA

12:29 PM PST on December 15, 2019 (GMT -0800)
Lake Tahoe

Weather History for KTVL - November, 2019

Change the Weather History Date:

Friday, November 22, 2019

  Actual Average Record
Temperature  
Mean Temperature 36 °F 34 °F  
Max Temperature 47 °F 48 °F 58 °F (1995)
Min Temperature 26 °F 21 °F -1 °F (1994)
Degree Days  
Heating Degree Days 28 31  
Month to date heating degree days 509 604  
Since 1 July heating degree days 1825 1836  
Cooling Degree Days 0 0  
Month to date cooling degree days 0 0  
Year to date cooling degree days 20 31  
Moisture  
Dew Point 30 °F    
Average Humidity 78    
Maximum Humidity 92    
Minimum Humidity 49    
Precipitation  
Precipitation 0.00 in - 2.68 in (1981)
Month to date precipitation 0.09  
Year to date precipitation 18.11  
Sea Level Pressure  
Sea Level Pressure 30.15 in    
Wind  
Wind Speed 1 mph ()    
Max Wind Speed 8 mph    
Max Gust Speed 10 mph    
Visibility 10.0 miles    
Events      
T = Trace of Precipitation, MM = Missing Value Source: Averaged Metar Reports

Daily Weather History Graph

Daily Weather History Graph

Search for Another Location

Airport or City:

Astronomy

Nov. 22, 2019 Rise Set
Actual Time 6:50 AM PST 4:41 PM PST
Civil Twilight 6:21 AM PST 5:10 PM PST
Nautical Twilight 5:48 AM PST 5:43 PM PST
Astronomical Twilight 5:16 AM PST 6:15 PM PST
Moon 2:05 AM PST (11/22) 2:42 PM PST (11/22)
Length of Visible Light 10h 49m
Length of Day
9h 51m
Waning Crescent, 18% of the Moon is Illuminated
Nov 22
Waning Crescent
Nov 26
New
Dec 3
First Quarter
Dec 11
Full
Dec 18
Last Quarter

Hourly Weather History & Observations

Time (PST) Temp. Windchill Dew Point Humidity Pressure Visibility Wind Dir Wind Speed Gust Speed Precip Events Conditions
12:53 AM 37.0 °F - 33.1 °F 86% 30.03 in 10.0 mi Calm Calm - N/A   Overcast
1:53 AM 37.0 °F 34.5 °F 33.1 °F 86% 30.03 in 10.0 mi South 3.5 mph - N/A   Overcast
2:53 AM 36.0 °F - 32.0 °F 86% 30.04 in 10.0 mi Calm Calm - N/A   Overcast
3:53 AM 36.0 °F 33.3 °F 32.0 °F 86% 30.06 in 10.0 mi South 3.5 mph - N/A   Overcast
4:53 AM 36.0 °F - 33.1 °F 89% 30.08 in 10.0 mi Calm Calm - N/A   Overcast
5:53 AM 37.0 °F 33.3 °F 33.1 °F 86% 30.09 in 10.0 mi SSE 4.6 mph - N/A   Overcast
6:53 AM 37.0 °F - 33.1 °F 86% 30.12 in 10.0 mi Calm Calm - N/A   Overcast
7:53 AM 37.0 °F - 33.1 °F 86% 30.14 in 10.0 mi Calm Calm - N/A   Overcast
8:53 AM 37.0 °F - 34.0 °F 89% 30.16 in 10.0 mi Calm Calm - N/A   Overcast
9:53 AM 39.9 °F 37.8 °F 33.1 °F 77% 30.16 in 10.0 mi South 3.5 mph - N/A   Overcast
10:53 AM 43.0 °F - 30.9 °F 62% 30.15 in 10.0 mi Calm Calm - N/A   Overcast
11:53 AM 45.0 °F 41.8 °F 28.0 °F 52% 30.13 in 10.0 mi NNE 5.8 mph - N/A   Overcast
12:53 PM 44.1 °F 42.5 °F 28.9 °F 55% 30.13 in 10.0 mi Variable 3.5 mph - N/A   Overcast
1:53 PM 46.0 °F 44.8 °F 28.9 °F 51% 30.12 in 10.0 mi NNE 3.5 mph - N/A   Overcast
2:53 PM 44.1 °F - 28.0 °F 53% 30.14 in 10.0 mi Calm Calm - N/A   Scattered Clouds
3:53 PM 43.0 °F - 30.0 °F 60% 30.14 in 10.0 mi Calm Calm - N/A   Mostly Cloudy
4:53 PM 37.9 °F - 30.0 °F 73% 30.18 in 10.0 mi Calm Calm - N/A   Overcast
5:53 PM 37.0 °F 34.5 °F 28.0 °F 70% 30.19 in 10.0 mi Variable 3.5 mph - N/A   Partly Cloudy
6:53 PM 30.9 °F - 27.0 °F 85% 30.23 in 10.0 mi Calm Calm - N/A   Clear
7:53 PM 28.0 °F 22.8 °F 26.1 °F 92% 30.24 in 10.0 mi SSW 4.6 mph - N/A   Clear
8:53 PM 27.0 °F - 25.0 °F 92% 30.26 in 10.0 mi Calm Calm - N/A   Clear
9:53 PM 28.0 °F 21.7 °F 25.0 °F 88% 30.25 in 10.0 mi Variable 5.8 mph - N/A   Clear
10:53 PM 27.0 °F - 25.0 °F 92% 30.26 in 10.0 mi Calm Calm - N/A   Clear
11:53 PM 26.1 °F - 24.1 °F 92% 30.26 in 10.0 mi Calm Calm - N/A   Partly Cloudy